Waarnemingen

Advertentie
Mijn weer
Guadalajara, Spanje (8226): temperatuur & dauwpunt: 12.10.2019 21:00:00 - 18.10.2019 21:00:00 (CEST)Guadalajara, Spanje (8226): windsnelheid: 12.10.2019 21:00:00 - 18.10.2019 21:00:00 (CEST)Guadalajara, Spanje (8226): windrichting: 12.10.2019 21:00:00 - 18.10.2019 21:00:00 (CEST)Guadalajara, Spanje (8226): luchtdruk: 12.10.2019 21:00:00 - 18.10.2019 21:00:00 (CEST)Guadalajara, Spanje (8226): zicht: 12.10.2019 21:00:00 - 18.10.2019 21:00:00 (CEST)Guadalajara, Spanje (8226): neerslag: 12.10.2019 21:00:00 - 18.10.2019 21:00:00 (CEST)
Datum & Tijd tt [°C] td [°C] ff [km/u] ff [kn] dd ppp [hPa] vv [km] rr [mm]
18.10.2019 21:00:00 - - - - - - - -
18.10.2019 20:00:00 - - - - - - - -
18.10.2019 19:00:00 - - - - - - - -
18.10.2019 18:00:00 19,6 13,5 16 9 WZW 1011,8 20 0,0
18.10.2019 17:00:00 19,7 13,4 15 8 WZW 1012,3 20 -
18.10.2019 16:00:00 19,5 13,2 18 10 ZW 1012,9 20 0,0
18.10.2019 15:00:00 18,4 14,7 18 10 ZW 1013,4 20 0,2
18.10.2019 14:00:00 16,3 14,8 13 7 ZW 1015,2 - -
18.10.2019 13:00:00 16,8 14,1 16 9 ZW 1015,4 20 0,0
18.10.2019 12:00:00 - - - - - - - -
18.10.2019 11:00:00 15,7 14,2 18 10 ZW 1015,7 20 -
18.10.2019 10:00:00 15,4 14,4 16 9 ZW 1015,8 19 0,0
18.10.2019 09:00:00 14,9 14,6 15 8 ZW 1015,5 7 0,0
18.10.2019 08:00:00 14,8 14,3 15 8 WZW 1015,5 12 -
18.10.2019 07:00:00 14,8 14,3 16 9 ZW 1015,6 16 0,0
18.10.2019 06:00:00 14,6 14,1 13 7 ZW 1016,0 19 0,0
18.10.2019 05:00:00 14,7 13,7 13 7 ZW 1015,8 9 -
18.10.2019 04:00:00 14,5 13,5 9 5 ZW 1016,4 18 0,0
18.10.2019 03:00:00 14,0 13,4 5 3 ZW 1017,3 7 0,2
18.10.2019 02:00:00 14,7 13,2 8 4 WZW 1016,8 4,2 -
18.10.2019 01:00:00 15,0 13,0 11 6 ZW 1017,1 15 0,0
18.10.2019 00:00:00 14,3 13,5 5 3 ZW 1017,9 12 0,0
17.10.2019 23:00:00 14,3 13,2 9 5 ZW 1018,4 1,6 -
17.10.2019 22:00:00 14,7 12,2 5 3 Z 1017,8 20 0,0
17.10.2019 21:00:00 14,7 11,8 4 2 ZZW 1018,0 20 0,0
17.10.2019 20:00:00 14,4 11,4 2 1 ZZW 1017,8 20 -
17.10.2019 19:00:00 14,3 11,1 2 1 ZW 1017,7 19 0,0
17.10.2019 18:00:00 14,1 10,9 5 3 WZW 1017,8 9 0,0
17.10.2019 17:00:00 13,8 11,1 9 5 ZW 1017,9 16 -
17.10.2019 16:00:00 13,8 11,0 9 5 WZW 1018,1 17 0,0
17.10.2019 15:00:00 14,2 10,2 11 6 ZW 1018,0 20 0,0
17.10.2019 14:00:00 13,8 9,8 8 4 WZW 1018,9 20 -
17.10.2019 13:00:00 13,0 9,8 11 6 WZW 1019,4 20 0,0
17.10.2019 12:00:00 11,6 9,3 9 5 WZW 1020,0 18 0,0
17.10.2019 11:00:00 11,4 8,8 8 4 WZW 1019,7 8 -
17.10.2019 10:00:00 10,6 7,8 4 2 ZW 1019,4 19 0,0
17.10.2019 09:00:00 8,9 6,7 2 1 WNW 1019,4 20 0,0
17.10.2019 08:00:00 8,9 5,6 2 1 NNO 1019,0 16 -
17.10.2019 07:00:00 9,2 5,4 4 2 Z 1018,3 20 0,0
17.10.2019 06:00:00 9,4 5,4 4 2 Z 1018,1 20 0,0
17.10.2019 05:00:00 10,0 5,0 11 6 Z 1017,9 20 -
17.10.2019 04:00:00 10,4 4,7 8 4 Z 1018,2 20 0,0
17.10.2019 03:00:00 10,9 4,6 8 4 ZZW 1018,5 20 0,0
17.10.2019 02:00:00 11,6 4,6 8 4 Z 1018,3 20 -
17.10.2019 01:00:00 12,5 4,5 8 4 ZZW 1018,4 20 0,0
17.10.2019 00:00:00 12,8 3,4 8 4 ZZW 1018,7 20 0,0
16.10.2019 23:00:00 12,6 2,4 8 4 Z 1018,3 20 -
16.10.2019 22:00:00 13,4 2,0 5 3 Z 1018,2 20 0,0
16.10.2019 21:00:00 14,0 2,5 8 4 ZZW 1017,7 20 0,2
16.10.2019 20:00:00 15,2 3,3 9 5 ZZW 1017,0 20 -
16.10.2019 19:00:00 17,3 2,8 15 8 WZW 1016,1 20 0,0
16.10.2019 18:00:00 18,1 3,2 13 7 WZW 1015,5 20 0,0
16.10.2019 17:00:00 18,4 4,5 15 8 WZW 1015,9 20 -
16.10.2019 16:00:00 17,8 6,3 13 7 ZW 1016,5 20 0,0
16.10.2019 15:00:00 17,0 6,8 9 5 W 1017,4 20 0,0
16.10.2019 14:00:00 16,0 6,1 9 5 WZW 1018,5 20 -
16.10.2019 13:00:00 15,2 5,9 13 7 ZW 1019,5 20 0,0
16.10.2019 12:00:00 13,8 6,4 8 4 WZW 1020,4 20 0,0
16.10.2019 11:00:00 12,6 5,5 8 4 WZW 1020,9 20 -
16.10.2019 10:00:00 10,3 4,4 4 2 Z 1021,5 19 0,0
16.10.2019 09:00:00 7,1 3,9 9 5 Z 1021,8 20 0,0
16.10.2019 08:00:00 7,0 3,6 5 3 ZZO 1021,4 20 -
16.10.2019 07:00:00 7,1 3,3 4 2 ZO 1021,0 20 0,0
16.10.2019 06:00:00 8,0 3,3 2 1 ZW 1020,9 20 0,0
16.10.2019 05:00:00 8,5 3,3 5 3 Z 1020,7 20 -
16.10.2019 04:00:00 9,4 3,1 5 3 ZZW 1020,8 20 0,0
16.10.2019 03:00:00 9,9 3,4 8 4 Z 1021,1 20 0,0
16.10.2019 02:00:00 10,4 3,2 4 2 Z 1021,3 20 -
16.10.2019 01:00:00 9,9 4,3 4 2 Z 1021,4 20 0,0
16.10.2019 00:00:00 10,6 3,6 4 2 O 1021,6 20 0,0
15.10.2019 23:00:00 12,0 3,0 2 1 NNW 1021,1 20 -
15.10.2019 22:00:00 12,3 2,4 9 5 ZW 1020,5 20 0,0
15.10.2019 21:00:00 12,5 2,6 11 6 ZZW 1020,1 20 0,0
15.10.2019 20:00:00 13,3 3,9 9 5 Z 1019,3 20 -
15.10.2019 19:00:00 15,1 3,6 11 6 ZW 1018,3 20 0,0
15.10.2019 18:00:00 16,0 3,4 13 7 ZW 1018,2 20 0,0
15.10.2019 17:00:00 16,5 3,9 13 7 WZW 1018,1 20 -
15.10.2019 16:00:00 16,5 2,8 5 3 W 1018,2 20 0,0
15.10.2019 15:00:00 15,6 2,7 11 6 ZW 1019,0 20 0,2
15.10.2019 14:00:00 15,0 3,2 11 6 WZW 1019,7 20 -
15.10.2019 13:00:00 13,6 3,6 8 4 ZZW 1020,5 20 0,0
15.10.2019 12:00:00 12,5 4,0 9 5 WZW 1020,9 20 0,0
15.10.2019 11:00:00 11,7 2,9 8 4 ZW 1021,0 20 -
15.10.2019 10:00:00 9,8 2,9 4 2 NO 1020,8 20 0,0
15.10.2019 09:00:00 6,1 3,3 4 2 NNW 1021,3 20 0,0
15.10.2019 08:00:00 5,7 2,7 4 2 O 1021,0 20 -
15.10.2019 07:00:00 6,7 2,9 4 2 Z 1020,3 20 0,0
15.10.2019 06:00:00 7,0 3,2 5 3 WZW 1019,8 20 0,0
15.10.2019 05:00:00 7,6 3,4 8 4 WZW 1019,5 20 -
15.10.2019 04:00:00 8,3 3,3 8 4 WNW 1019,1 20 0,0
15.10.2019 03:00:00 8,3 4,9 9 5 WZW 1018,9 20 0,0
15.10.2019 02:00:00 8,8 6,1 9 5 ZW 1018,5 20 -
15.10.2019 01:00:00 9,3 7,4 8 4 ZZW 1017,6 20 0,0
15.10.2019 00:00:00 9,8 7,0 9 5 WZW 1017,1 20 0,0
14.10.2019 23:00:00 10,4 9,0 15 8 WZW 1016,1 20 -
14.10.2019 22:00:00 10,5 9,4 11 6 WZW 1015,8 20 0,2
14.10.2019 21:00:00 10,6 9,0 13 7 ZW 1014,8 19 0,8
14.10.2019 20:00:00 11,3 9,9 11 6 W 1014,9 2,5 -
14.10.2019 19:00:00 13,3 9,9 26 14 W 1013,0 3,5 0,6
14.10.2019 18:00:00 18,0 6,5 18 10 WZW 1009,8 20 0,0
14.10.2019 17:00:00 19,2 7,3 18 10 WZW 1009,2 20 -
14.10.2019 16:00:00 19,1 7,8 26 14 ZW 1008,9 20 0,0
14.10.2019 15:00:00 18,4 8,9 24 13 WZW 1009,6 20 0,0
14.10.2019 14:00:00 17,8 10,4 24 13 W 1010,3 20 -
14.10.2019 13:00:00 19,2 10,5 24 13 ZW 1009,9 20 0,0
14.10.2019 12:00:00 18,7 10,8 21 11 WZW 1010,3 20 0,0
14.10.2019 11:00:00 18,8 11,6 22 12 WZW 1010,2 20 -
14.10.2019 10:00:00 18,3 11,8 22 12 ZW 1009,9 20 0,0
14.10.2019 09:00:00 18,7 9,7 22 12 ZW 1009,0 20 0,0
14.10.2019 08:00:00 18,0 11,8 18 10 ZZW 1008,4 20 -
14.10.2019 07:00:00 17,7 12,2 15 8 Z 1008,3 20 0,0
14.10.2019 06:00:00 17,8 12,0 5 3 ZW 1008,7 20 0,0
14.10.2019 05:00:00 17,3 11,6 5 3 OZO 1008,6 20 -
14.10.2019 04:00:00 17,9 10,3 9 5 ZZO 1008,9 19 0,0
14.10.2019 03:00:00 17,6 9,5 16 9 ZZO 1009,7 20 0,0
14.10.2019 02:00:00 15,9 7,6 11 6 ZZO 1011,4 20 -
14.10.2019 01:00:00 15,6 11,4 4 2 NNO 1011,9 20 0,0
14.10.2019 00:00:00 16,6 11,3 4 2 WNW 1012,5 20 0,0
13.10.2019 23:00:00 17,0 11,9 4 2 NNO 1013,0 20 -
13.10.2019 22:00:00 17,5 12,4 4 2 ZZO 1012,7 20 0,0
13.10.2019 21:00:00 18,3 12,5 2 1 Z 1012,6 20 0,0
13.10.2019 20:00:00 20,9 12,6 4 2 ZZO 1012,0 20 -
13.10.2019 19:00:00 23,4 12,1 8 4 W 1011,1 20 0,0
13.10.2019 18:00:00 24,7 12,3 5 3 W 1010,6 20 0,2
13.10.2019 17:00:00 24,4 12,7 9 5 WZW 1011,2 20 -
13.10.2019 16:00:00 24,0 12,9 11 6 WZW 1011,4 20 0,0
13.10.2019 15:00:00 23,3 12,9 13 7 W 1012,2 20 0,0
13.10.2019 14:00:00 22,3 13,1 15 8 WZW 1013,2 20 -
13.10.2019 13:00:00 21,1 13,0 18 10 ZW 1014,2 20 0,0
13.10.2019 12:00:00 19,0 13,6 15 8 WZW 1015,1 20 0,0
13.10.2019 11:00:00 17,6 13,7 4 2 W 1015,4 20 -
13.10.2019 10:00:00 15,9 13,0 5 3 WNW 1015,5 20 0,0
13.10.2019 09:00:00 15,8 13,5 5 3 WZW 1014,5 20 0,0
13.10.2019 08:00:00 14,2 12,9 4 2 WZW 1014,4 20 -
13.10.2019 07:00:00 14,6 12,3 5 3 WNW 1013,9 20 0,0
13.10.2019 06:00:00 15,0 12,5 4 2 NNO 1013,9 20 0,0
13.10.2019 05:00:00 15,6 12,7 4 2 NNO 1014,0 20 -
13.10.2019 04:00:00 15,8 12,0 5 3 O 1014,1 20 0,0
13.10.2019 03:00:00 16,4 11,5 8 4 ONO 1014,6 20 0,0
13.10.2019 02:00:00 16,5 11,6 29 16 ZO 1014,0 20 -
13.10.2019 01:00:00 15,8 12,9 13 7 OZO 1015,5 20 0,2
13.10.2019 00:00:00 16,4 13,3 9 5 WZW 1017,3 18 0,4
12.10.2019 23:00:00 16,4 12,4 11 6 Z 1016,4 13 -
12.10.2019 22:00:00 16,3 12,8 8 4 ZZO 1016,7 - 3,0
12.10.2019 21:00:00 21,9 10,1 16 9 Z 1012,6 20 0,0

tt = temperatuur
td = dauwpunt
ff = windsnelheid
dd = windrichting
ppp = luchtdruk
vv = zicht
rr = neerslag

Weerstations in de omgeving